Location: Stilling
(56.0622°N, 9.9882°E)
Time: 12:31:35
(UTC+00:00)

Lacrosse 5 rocket - Pass Details

Date: 13 July 2020
Orbit: 464 x 632 km, 57.0° (Epoch: 06 August)

Event Time Altitude Azimuth Distance (km) Brightness Sun altitude
Rises 22:07:58 0° 290° (WNW) 2,740 5.5 -10.6°
Reaches altitude 10° 22:10:40 10° 274° (W) 1,807 4.2 -10.7°
Maximum altitude 22:13:42 21° 226° (SW) 1,234 2.9 -10.8°
Enters shadow 22:15:46 14° 187° (S) 1,494 3.0 -10.9°
